Weather in Curchorem

India     15°15′25″N   74°06′39″E
temp.,
°C
wind,
m/s
gust,
m/s
humid.,
%
clouds,
%
prec.,
mm/h
press.,
hPa
HPBL,
m
7 may, fri
fri723:30+28ssw118167 9.2 101051
02:30+28ne018459 0.0 100884
05:30+27e118697 0.1 1008101
08:30+30n017660 0.1 1011326
11:30+33nw325768 0.1 1010890
14:30+35w544612 0.0 10071173
17:30+29nnw467479 1.7 1007459
20:30+27e238689 0.6 1010191
8 may, sat
sat823:30+27ne118297 0.6 101075
02:30+27nne1179100 0.0 100763
05:30+27ese117764 0.0 100853
08:30+31ssw115926 0.0 1010476
11:30+36w33437 0.0 10091432
14:30+35wsw644825 0.0 1006963
17:30+32w445938 0.0 1006807
20:30+29wnw25747 0.0 1008341
9 may, sun
sun923:30+29nnw12785 0.0 1008103
02:30+28n12806 0.0 1006103
05:30+27se118350 0.0 100788
08:30+32ne016344 0.0 1009779
11:30+35w435099 0.0 10091496
14:30+34w65539 0.0 1006989
17:30+30nw3566100 0.3 1006734
20:30+29nw13745 0.0 1008211
10 may, mon
mon1023:30+28sse017795 0.0 100876
02:30+27n128069 0.0 1006119
05:30+27n117999 0.0 1007122
08:30+31nnw23655 0.0 1009835
11:30+35w43495 0.0 10081374
14:30+34w64545 0.0 10061125
17:30+31wnw556222 0.0 10061122
20:30+29nw367476 0.0 1008681
11 may, tue
tue1123:30+28nw247742 0.1 1008242
02:30+27nnw238097 0.1 1007124
05:30+27n128382 0.1 1007125
08:30+30nnw246556 0.1 1009985
11:30+35wnw54485 0.1 10081402
14:30+34wnw65505 0.0 10061096
17:30+31wnw56615 0.0 1006968
20:30+29nw36733 0.0 1008617